星链-34101 (STARLINK-34101)

导读

STARLINK-34101是美国太空探索技术公司(SpaceX)“星链”星座的卫星,于2025年5月4日由猎鹰9号火箭发射升空,是该批29颗星链卫星中的一员。星链项目旨在构建全球低轨卫星互联网星座,可提供低成本的全球互联网接入服务,此次发射后,活跃星链卫星总数达到6230颗,进一步拓展了星座覆盖规模,持续推进全球卫星网络部署。

基本信息
目录编号:
63812
目录名称:
STARLINK-34101
国际标识:
2025-092J
轨道中心:
EARTH
卫星名称:
星链-34101
卫星全名:
星链-34101 (STARLINK-34101)
卫星状态:
在轨 (已飞行488 天)
发射日期:
2025-05-04 UTC
国别 :
美国 (US)
星等 :
--
轨道信息
数据来源 国际轨道数据
星历时间: 2026-09-03T16:58:12+0800
19小时前
查看轨道信息
半长轴: 6861.154km
偏心率: 0.000218
轨道倾角: 43.001°
近地点辐角 275.663°
升交点赤经 248.684°
平近点角 84.397°
近地点: 481.521km
远地点: 484.513km
周期: 94.266分钟
每日圈数: 15.275908
详细信息
固有亮度:
5
最大亮度:
2.5
卫星平台:
Starlink V1.0
覆盖范围:
全球
运营商:
太空探索技术公司
运营商所在国:
美国
制造商(研发单位):
太空探索技术公司
制造商所在国:
美国
使用方式:
暂无
卫星简介
Starlink 计划是 SpaceX 推出的全球卫星互联网项目,通过发射低轨道卫星,为全球尤其是偏远地区提供高速、低延迟的互联网服务。自 2019 年起,Starlink 已部署数千颗卫星,旨在缩小全球数字鸿沟,推动互联网普及。该项目还为军事、航空等行业提供通信支持,带来广泛经济效益。
2D轨道图
3D轨道图
轨道高度分析图
轨道倾角分析图
轨道综合分析图
查看轨道综合分析图
交会数据列表
事件ID 空间交会对象 最接近时刻(TCA) 交会距离 交会风险概率(CRP) 交会风险指数(CRI) 操作
CDM_260903-021205-706806-381221
2026-09-03T
02:12:12+0000
0.506 km
远距离
1.047414E-4 高风险 0.75
CDM_260903-091505-706806-381221
2026-09-03T
09:15:53+0000
0.554 km
远距离
8.247628E-5 中风险 0.73
CDM_260904-124105-708806-381222
2026-09-04T
12:41:30+0000
0.723 km
远距离
4.414919E-5 中风险 0.68
CDM_260904-231805-789806-381221
2026-09-04T
23:18:14+0000
0.946 km
远距离
2.461031E-5 中风险 0.63
CDM_260905-034005-817806-381221
2026-09-05T
03:40:55+0000
0.820 km
远距离
1.626179E-5 中风险 0.59
CDM_260903-003906-267506-381222
2026-09-03T
00:39:58+0000
1.315 km
极远距离
8.215743E-6 低风险 0.53
CDM_260829-170305-706806-381222
2026-08-29T
17:03:39+0000
1.152 km
极远距离
7.820949E-6 低风险 0.53
CDM_260905-011905-817806-381221
2026-09-05T
01:19:42+0000
1.031 km
极远距离
7.455902E-6 低风险 0.52
CDM_260903-073805-321406-381221
2026-09-03T
07:38:36+0000
1.371 km
极远距离
6.379363E-6 低风险 0.51
CDM_260904-214405-789806-381221
2026-09-04T
21:44:04+0000
1.431 km
极远距离
5.931951E-6 低风险 0.5